Home   Weather   Creighton   Past weeks

Flag for Canada Past Weather in Creighton, Saskatchewan, Canada — Yesterday and Last 2 Weeks

Now
21 °F

Passing clouds.


Feels Like: 21 °F
Forecast: 26 / 50 °F
Wind: No wind

Location: The Pas

Current Time: Apr 28, 2017 at 7:16:00 am

Latest Report: Apr 28, 2017 at 6:00 am


Visibility: 15 mi

Pressure: 30.06 "Hg

Humidity: 74%

Dew Point: 14 °F

Location of CreightonLocation

Past Weather in Creighton — Graph

°F

Creighton Temperature Yesterday

Maximum temperature yesterday: 46 °F (at 7:00 pm)
Minimum temperature yesterday: 23 °F (at 1:00 am)
Average temperature yesterday: 34 °F

High & Low Weather Summary for the Past Weeks

 TemperatureHumidityPressure
High50 °F (Apr 20, 6:00 pm)93% (Apr 14, 6:00 pm)30.47 "Hg (Apr 14, 6:00 pm)
Low9 °F (Apr 16, 7:00 am)18% (Apr 27, 4:00 pm)29.80 "Hg (Apr 14, 8:00 pm)
Average29 °F64%30.17 "Hg
* Reported Apr 13 6:00 am — Apr 28 6:00 am, Creighton, Weather by CustomWeather, © 2017

Note: Actual official high and low records may vary slightly from our data, if they occured in-between our weather recording intervals... More about our weather records

Advertising

Creighton Weather History for the Previous 24 Hours

Scroll right to see more
 ConditionsComfort  
Time TempWeatherWind HumidityBarometerVisibility
6:00 am
Fri, Apr 28
21 °FPassing clouds.No wind74%30.06 "Hg15 mi
5:00 am21 °FPassing clouds.2 mph74%30.05 "Hg15 mi
4:00 am23 °FClear.No wind68%30.04 "Hg15 mi
3:00 am23 °FClear.2 mph68%30.03 "Hg15 mi
2:00 am27 °FClear.2 mph59%30.02 "Hg15 mi
1:00 am25 °FClear.2 mph59%30.01 "Hg15 mi
12:00 am27 °FClear.No wind59%30.01 "Hg15 mi
11:00 pm
Thu, Apr 27
27 °FClear.2 mph59%30.01 "Hg15 mi
10:00 pm30 °FPassing clouds.No wind37%30.00 "Hg15 mi
9:00 pm36 °FPassing clouds.2 mph41%29.98 "Hg15 mi
8:00 pm45 °FPassing clouds.2 mph21%29.98 "Hg15 mi
7:00 pm46 °FPassing clouds.7 mph20%29.97 "Hg15 mi
6:00 pm45 °FPassing clouds.8 mph23%29.97 "Hg15 mi
5:00 pm45 °FPassing clouds.10 mph25%29.97 "Hg15 mi
4:00 pm45 °FMostly cloudy.5 mph18%29.98 "Hg15 mi
3:00 pm45 °FOvercast.9 mph21%29.99 "Hg15 mi
2:00 pm43 °FOvercast.8 mph21%30.00 "Hg15 mi
1:00 pm41 °FMore clouds than sun.9 mph24%30.01 "Hg15 mi
12:00 pm39 °FOvercast.9 mph26%30.02 "Hg15 mi
11:00 am34 °FOvercast.7 mph48%30.03 "Hg15 mi
10:00 am34 °FMore clouds than sun.5 mph44%30.03 "Hg15 mi
9:00 am30 °FOvercast.5 mph55%30.03 "Hg15 mi
8:00 am28 °FCloudy.5 mph51%30.03 "Hg15 mi
7:00 am23 °FPartly sunny.3 mph68%30.03 "Hg15 mi
Weather by CustomWeather, © 2017

See weather overviewHow to use our weather pages